Location: Hermaringen
(48.5952°N, 10.2585°E)
Time: 06:21:13
(UTC+00:00)

Altair - Pass Details

Date: 20 February 2026
Orbit: 1502 x 1682 km, 47.2° (Epoch: 5 March)

Event Time Altitude Azimuth Distance (km) Brightness Sun altitude
Rises 08:19:43 0° 285° (WNW) 4,687 9.5 16.9°
Reaches altitude 10° 08:22:46 10° 282° (WNW) 3,722 9.1 17.3°
Maximum altitude 08:31:59 61° 206° (SSW) 1,756 8.3 18.5°
Drops below altitude 10° 08:41:33 10° 129° (SE) 3,853 11.9 19.6°
Sets 08:44:45 0° 126° (SE) 4,860 11.7 20.0°
